Flag Weather past 2 weeks in Mulhouse, France

Now
46 °F

Low clouds.


Feels Like: 45 °F
Forecast: 40 / 53 °F
Wind: 3 mph from North

Location: Bale-Mulhouse

Current Time: Nov 27, 2014 at 11:55:06 AM

Latest Report: Nov 27, 2014 at 11:30 AM


Visibility: 4 mi

Pressure: 29.77 "Hg

Humidity: 93%

Dew point: 45 °F

Location of MulhouseLocation

Historic Weather in Mulhouse — Graph

°F

Mulhouse temperature yesterday

Maximum temperature yesterday: 52 °F (at 1:00 PM)
Minimum temperature yesterday: 45 °F (at 2:00 AM)
Average temperature yesterday: 47 °F

Past Weeks' High & Low Weather Summary

 TemperatureHumidityPressure
High59 °F (Nov 24, 2:30 PM)100% (Nov 12, 9:00 PM)30.27 "Hg (Nov 12, 9:00 PM)
Low32 °F (Nov 20, 2:00 AM)63% (Nov 16, 2:30 PM)29.59 "Hg (Nov 15, 2:00 AM)
Average46 °F91%29.94 "Hg
* Reported Nov 12 10:00 AM — Nov 27 10:30 AM, Mulhouse, Weather by CustomWeather, © 2014

Note: Actual official high and low records may vary slightly from our data, if they occured in-between our weather recording intervals... More about our weather records

Advertising

Mulhouse weather history for previous 24 hours

 ConditionsComfort  
Time TempWeatherWind HumidityBarometerVisibility
10:30 AM
Nov 27
46 °FOvercast.5 mph93%29.80 "Hg4 mi
10:00 AM45 °FFog.5 mph100%29.80 "Hg3 mi
9:30 AM45 °FFog.5 mph100%29.80 "Hg2 mi
9:00 AM45 °FFog.5 mph100%29.80 "Hg2 mi
8:30 AM45 °FFog.3 mph100%29.80 "Hg2 mi
8:00 AM45 °FFog.5 mph100%29.77 "Hg2 mi
7:30 AM45 °FFog.5 mph93%29.80 "Hg2 mi
7:00 AM45 °FQuite cool.3 mph100%29.77 "Hg1 mi
6:30 AM43 °FFog.5 mph100%29.80 "Hg1 mi
6:00 AM43 °FQuite cool.5 mph100%29.80 "Hg1 mi
5:30 AM43 °FFog.5 mph100%29.80 "Hg1 mi
5:00 AM45 °FQuite cool.5 mph93%29.80 "Hg1 mi
4:30 AM45 °FQuite cool.5 mph93%29.83 "Hg2 mi
4:00 AM45 °FFog.5 mph93%29.83 "Hg1 mi
3:30 AM45 °FFog.5 mph100%29.83 "Hg1 mi
3:00 AM45 °FFog.5 mph100%29.83 "Hg2 mi
2:30 AM45 °FFog.5 mph100%29.83 "Hg2 mi
2:00 AM45 °FMostly cloudy.3 mph100%29.86 "HgN/A
1:30 AM46 °FMostly cloudy.3 mph93%29.86 "HgN/A
12:30 AM48 °FMostly cloudy.3 mph87%29.86 "HgN/A
12:00 AM48 °FMostly cloudy.3 mph87%29.89 "Hg5 mi
11:30 PM
Nov 26
48 °FMostly cloudy.3 mph87%29.89 "Hg5 mi
11:00 PM48 °FMostly cloudy.5 mph87%29.89 "Hg5 mi
10:30 PM48 °FOvercast.2 mph87%29.89 "Hg4 mi
10:00 PM46 °FOvercast.3 mph93%29.89 "Hg4 mi
9:30 PM46 °FOvercast.3 mph100%29.89 "Hg4 mi
9:00 PM46 °FOvercast.3 mph100%29.89 "Hg4 mi
8:30 PM48 °FOvercast.5 mph94%29.92 "Hg4 mi
8:00 PM48 °FOvercast.3 mph94%29.92 "Hg4 mi
7:30 PM48 °FOvercast.3 mph94%29.92 "Hg5 mi
7:00 PM48 °FPassing clouds.3 mph94%29.92 "Hg5 mi
6:30 PM48 °FPassing clouds.3 mph94%29.92 "Hg5 mi
6:00 PM48 °FPassing clouds.3 mph87%29.92 "Hg5 mi
5:30 PM48 °FPartly cloudy.5 mph94%29.92 "Hg5 mi
5:00 PM48 °FPassing clouds.6 mph94%29.92 "Hg5 mi
4:30 PM48 °FPartly sunny.5 mph94%29.92 "HgN/A
4:00 PM50 °FPartly sunny.6 mph88%29.92 "HgN/A
3:30 PM50 °FPartly sunny.5 mph88%29.92 "HgN/A
3:00 PM50 °FPartly sunny.5 mph88%29.92 "HgN/A
2:30 PM52 °FPartly sunny.6 mph82%29.92 "HgN/A
2:00 PM52 °FPartly sunny.3 mph82%29.92 "Hg6 mi
1:00 PM52 °FBroken clouds.3 mph82%29.95 "Hg5 mi
12:30 PM50 °FBroken clouds.2 mph88%29.95 "Hg5 mi
12:00 PM50 °FBroken clouds.2 mph94%29.98 "Hg4 mi
11:30 AM48 °FPartly sunny.2 mph100%29.98 "Hg4 mi
11:00 AM48 °FBroken clouds.3 mph94%29.98 "Hg4 mi
Weather by CustomWeather, © 2014

See weather overviewHow to use our weather pages